When you browse on this site, cookies collect data to enhance your experience and personalize the content and advertising you see.
Visit our Privacy Policy to learn more. By continuing to use the site, you agree to this use of cookies and data.
  • In Austria
  • List of Countries
  • For 7 days
  • Water Temperature
  • Weather Map
  • News
  • Weather Widgets
  • user-avatar
    Login

    Hourly Weather Orizatlan

    Today, 25 August, Sunday

    Time Temperature Precipitation Wind Pressure Humidity
    00:00 +26°C° 0 mm 1 mps 743 mmHg 93%
    01:00 +24°C° 0 mm 0 mps 742 mmHg 93%
    02:00 +24°C° 0 mm 0 mps 742 mmHg 92%
    03:00 +24°C° 0 mm 0 mps 742 mmHg 92%
    04:00 +25°C° 0 mm 1 mps 742 mmHg 93%
    05:00 +25°C° 0 mm 1 mps 742 mmHg 93%
    06:00 +27°C° 0 mm 1 mps 742 mmHg 87%
    07:00 +27°C° 0 mm 0 mps 743 mmHg 80%
    08:00 +29°C° 0 mm 0 mps 743 mmHg 74%
    09:00 +32°C° 0 mm 1 mps 743 mmHg 68%
    10:00 +33°C° 0 mm 1 mps 742 mmHg 62%
    11:00 +36°C° 0 mm 2 mps 742 mmHg 57%
    12:00 +36°C° 0 mm 2 mps 741 mmHg 56%
    13:00 +37°C° 0 mm 2 mps 740 mmHg 55%
    14:00 +37°C° 0 mm 2 mps 740 mmHg 55%
    15:00 +36°C° 0.1 mm 2 mps 740 mmHg 60%
    16:00 +34°C° 0.1 mm 1 mps 740 mmHg 66%
    17:00 +33°C° 0.1 mm 1 mps 740 mmHg 71%
    18:00 +32°C° 0.2 mm 1 mps 740 mmHg 76%
    19:00 +30°C° 0.2 mm 1 mps 741 mmHg 81%
    20:00 +29°C° 0.2 mm 1 mps 741 mmHg 86%
    21:00 +28°C° 0.1 mm 1 mps 741 mmHg 88%
    22:00 +28°C° 0.1 mm 1 mps 741 mmHg 90%
    23:00 +27°C° 0.1 mm 1 mps 741 mmHg 91%

    Tomorrow, 26 August, Monday

    Time Temperature Precipitation Wind Pressure Humidity
    00:00 +27°C° 0.1 mm 1 mps 741 mmHg 92%
    01:00 +27°C° 0.1 mm 1 mps 741 mmHg 92%
    02:00 +27°C° 0.1 mm 1 mps 740 mmHg 92%
    03:00 +27°C° 0 mm 1 mps 740 mmHg 93%
    04:00 +24°C° 0 mm 0 mps 740 mmHg 93%
    05:00 +24°C° 0 mm 0 mps 740 mmHg 94%
    06:00 +25°C° 0 mm 0 mps 741 mmHg 90%
    07:00 +29°C° 0 mm 1 mps 741 mmHg 86%
    08:00 +30°C° 0 mm 1 mps 741 mmHg 83%
    09:00 +31°C° 0.1 mm 1 mps 741 mmHg 78%
    10:00 +32°C° 0.1 mm 1 mps 741 mmHg 74%
    11:00 +33°C° 0.1 mm 1 mps 740 mmHg 69%
    12:00 +34°C° 0.3 mm 1 mps 740 mmHg 68%
    13:00 +34°C° 0.3 mm 1 mps 739 mmHg 67%
    14:00 +35°C° 0.3 mm 1 mps 739 mmHg 66%
    15:00 +34°C° 0.1 mm 1 mps 739 mmHg 69%
    16:00 +34°C° 0.1 mm 1 mps 738 mmHg 72%
    17:00 +33°C° 0.1 mm 1 mps 738 mmHg 76%
    18:00 +32°C° 0.2 mm 1 mps 739 mmHg 80%
    19:00 +30°C° 0.2 mm 1 mps 740 mmHg 85%
    20:00 +28°C° 0.2 mm 1 mps 741 mmHg 90%
    21:00 +28°C° 0.3 mm 1 mps 741 mmHg 91%
    22:00 +27°C° 0.3 mm 1 mps 741 mmHg 92%
    23:00 +27°C° 0.3 mm 1 mps 741 mmHg 93%

    Day after tomorrow, 27 August, Tuesday

    Time Temperature Precipitation Wind Pressure Humidity
    00:00 +25°C° 0.1 mm 0 mps 741 mmHg 94%
    01:00 +25°C° 0.1 mm 0 mps 741 mmHg 95%
    02:00 +24°C° 0.1 mm 0 mps 741 mmHg 96%
    03:00 +24°C° 0 mm 0 mps 741 mmHg 96%
    04:00 +24°C° 0 mm 0 mps 741 mmHg 97%
    05:00 +24°C° 0 mm 0 mps 741 mmHg 97%
    06:00 +27°C° 0 mm 1 mps 741 mmHg 94%
    07:00 +28°C° 0 mm 1 mps 742 mmHg 90%
    08:00 +29°C° 0 mm 1 mps 742 mmHg 87%
    09:00 +31°C° 0.1 mm 1 mps 742 mmHg 80%
    10:00 +32°C° 0.1 mm 1 mps 742 mmHg 74%
    11:00 +33°C° 0.1 mm 1 mps 741 mmHg 67%
    12:00 +34°C° 0 mm 1 mps 741 mmHg 64%
    13:00 +34°C° 0 mm 1 mps 740 mmHg 61%
    14:00 +35°C° 0 mm 1 mps 740 mmHg 59%
    15:00 +34°C° 0.1 mm 1 mps 740 mmHg 62%
    16:00 +33°C° 0.1 mm 1 mps 740 mmHg 65%
    17:00 +33°C° 0.1 mm 1 mps 740 mmHg 68%
    18:00 +31°C° 0.5 mm 1 mps 741 mmHg 74%
    19:00 +29°C° 0.5 mm 1 mps 742 mmHg 80%
    20:00 +28°C° 0.5 mm 1 mps 743 mmHg 86%
    21:00 +27°C° 0.3 mm 1 mps 743 mmHg 88%
    22:00 +27°C° 0.3 mm 1 mps 743 mmHg 90%
    23:00 +26°C° 0.3 mm 1 mps 743 mmHg 92%

    28 August, Wednesday

    Time Temperature Precipitation Wind Pressure Humidity
    00:00 +26°C° 0 mm 1 mps 743 mmHg 92%
    01:00 +26°C° 0 mm 1 mps 743 mmHg 93%
    02:00 +26°C° 0 mm 1 mps 743 mmHg 93%
    03:00 +25°C° 0.1 mm 1 mps 743 mmHg 93%
    04:00 +23°C° 0.1 mm 0 mps 743 mmHg 94%
    05:00 +23°C° 0.1 mm 0 mps 744 mmHg 95%
    06:00 +24°C° 0 mm 0 mps 744 mmHg 91%
    07:00 +26°C° 0 mm 0 mps 744 mmHg 88%
    08:00 +27°C° 0 mm 0 mps 745 mmHg 84%
    09:00 +31°C° 0.1 mm 1 mps 744 mmHg 76%
    10:00 +32°C° 0.1 mm 1 mps 744 mmHg 68%
    11:00 +34°C° 0.1 mm 1 mps 744 mmHg 60%
    12:00 +34°C° 0.1 mm 1 mps 743 mmHg 60%
    13:00 +34°C° 0.1 mm 1 mps 743 mmHg 60%
    14:00 +34°C° 0.1 mm 1 mps 742 mmHg 60%
    15:00 +33°C° 0.5 mm 1 mps 742 mmHg 65%
    16:00 +33°C° 0.5 mm 1 mps 742 mmHg 70%
    17:00 +32°C° 0.5 mm 1 mps 743 mmHg 75%
    18:00 +30°C° 0.1 mm 1 mps 743 mmHg 79%
    19:00 +28°C° 0.1 mm 1 mps 744 mmHg 83%
    20:00 +27°C° 0.1 mm 1 mps 745 mmHg 87%
    21:00 +26°C° 0.3 mm 1 mps 745 mmHg 89%
    22:00 +26°C° 0.3 mm 1 mps 745 mmHg 91%
    23:00 +25°C° 0.3 mm 1 mps 745 mmHg 93%

    29 August, Thursday

    Time Temperature Precipitation Wind Pressure Humidity
    00:00 +25°C° 0 mm 1 mps 745 mmHg 93%
    01:00 +25°C° 0 mm 1 mps 745 mmHg 93%
    02:00 +25°C° 0 mm 1 mps 744 mmHg 94%
    03:00 +24°C° 0 mm 1 mps 744 mmHg 94%
    04:00 +24°C° 0 mm 1 mps 745 mmHg 93%
    05:00 +24°C° 0 mm 1 mps 745 mmHg 93%
    06:00 +26°C° 0 mm 1 mps 745 mmHg 87%
    07:00 +26°C° 0 mm 0 mps 745 mmHg 81%
    08:00 +27°C° 0 mm 0 mps 746 mmHg 76%
    09:00 +31°C° 0 mm 1 mps 745 mmHg 70%
    10:00 +32°C° 0 mm 1 mps 745 mmHg 64%
    11:00 +35°C° 0 mm 2 mps 745 mmHg 58%
    12:00 +35°C° 0 mm 2 mps 744 mmHg 55%
    13:00 +34°C° 0 mm 1 mps 743 mmHg 51%
    14:00 +35°C° 0 mm 1 mps 743 mmHg 47%
    15:00 +34°C° 0 mm 1 mps 743 mmHg 52%
    16:00 +33°C° 0 mm 1 mps 743 mmHg 57%
    17:00 +32°C° 0 mm 1 mps 743 mmHg 62%
    18:00 +30°C° 0 mm 1 mps 744 mmHg 65%
    19:00 +29°C° 0 mm 1 mps 744 mmHg 69%
    20:00 +27°C° 0 mm 1 mps 745 mmHg 72%
    21:00 +27°C° 0 mm 1 mps 745 mmHg 75%
    22:00 +26°C° 0 mm 1 mps 745 mmHg 78%
    23:00 +26°C° 0 mm 1 mps 745 mmHg 80%

    30 August, Friday

    Time Temperature Precipitation Wind Pressure Humidity
    00:00 +25°C° 0 mm 1 mps 745 mmHg 81%
    01:00 +25°C° 0 mm 1 mps 744 mmHg 81%
    02:00 +24°C° 0 mm 1 mps 744 mmHg 82%
    03:00 +24°C° 0 mm 1 mps 744 mmHg 82%
    04:00 +24°C° 0 mm 1 mps 744 mmHg 83%
    05:00 +24°C° 0 mm 1 mps 744 mmHg 83%
    06:00 +26°C° 0 mm 1 mps 744 mmHg 76%
    07:00 +26°C° 0 mm 0 mps 744 mmHg 70%
    08:00 +28°C° 0 mm 0 mps 745 mmHg 63%
    09:00 +31°C° 0 mm 1 mps 744 mmHg 60%
    10:00 +33°C° 0 mm 1 mps 744 mmHg 56%
    11:00 +35°C° 0 mm 2 mps 743 mmHg 53%
    12:00 +35°C° 0 mm 2 mps 743 mmHg 50%
    13:00 +36°C° 0 mm 2 mps 742 mmHg 47%
    14:00 +36°C° 0 mm 2 mps 741 mmHg 44%
    15:00 +35°C° 0 mm 2 mps 741 mmHg 49%
    16:00 +33°C° 0 mm 1 mps 741 mmHg 54%
    17:00 +32°C° 0 mm 1 mps 742 mmHg 60%
    18:00 +30°C° 0 mm 1 mps 742 mmHg 65%
    19:00 +28°C° 0 mm 2 mps 743 mmHg 70%
    20:00 +27°C° 0 mm 2 mps 744 mmHg 76%
    21:00 +26°C° 0 mm 2 mps 744 mmHg 77%
    22:00 +25°C° 0 mm 1 mps 744 mmHg 78%
    23:00 +25°C° 0 mm 1 mps 744 mmHg 79%
    Show more